"Pseudo-MPEC" for P10Rx6s

Created 2019 Sep 18 19:07:11 UT using Find_Orb

Click here for an explanation of pseudo-MPECs

 
 Astrometry: 
     P10Rx6s  C2019 09 10oOLpnLdQ,17,/pnFAstrometry;NIvZq/E^g]K72Q9\y?QK1h1u8F51
     P10Rx6s  C2019 09 10YA1uoZK*ZB9%'[,r(8ed7*?h/*0t%#TG4redacted;)pHT)QnbXOF51
     P10Rx6s  C2019 09 10YGa0fLpkj%uUSUX-FjLnclickEMQPu:bJsK4k7`m-+7f[ls6$[8JF51
     P10Rx6s  C2019 09 10K?Jkpfdbj7C;L4,f[9rrYS?SCC45n9SgdE]e'09$K?l2,MK$E_1dF51
     P10Rx6s KC2019 09 12lTbZCVsvhereC7uZVa\7Kv;P;-b!ZhYYMjDsx,SuLr9dmst.01Y`H21
     P10Rx6s KC2019 09 12L0UYrforWm`6L3[J,309/@'?*tmX)#iexplanationbcor(Euu+fH21
     P10Rx6s KC2019 09 18.35875 03 28 30.71 -08 38 48.6    ~9IAM 19.3 RoNEOCP691
     P10Rx6s KC2019 09 18.37563 03 28 31.68 -08 39 01.8    ~9IAM 19.9 RoNEOCP691
     P10Rx6s KC2019 09 18.39249 03 28 32.64 -08 39 15.3    ~9IAM 19.2 RoNEOCP691

Station data:
(691) Steward Observatory, Kitt Peak - Spacewatch  (N31.962174 W111.600327)
   US/Arizona.  Observer J. V. Scotti. 0.9-m f/3 reflector + CCD.
(F51) Pan-STARRS 1, Haleakala  (N20.707235 W156.255910)  US/Hawaii.
   Observers N. Primak, A. Schultz, S. Watters, J. Thiel, T. Goggia. Measurer
   PS1 Science Consortium. 1.8-m Ritchey-Chrétien + CCD.
(H21) Astronomical Research Observatory, Westfield  (N39.483057 W87.968270)
   US/Illinois. 0.76-m f/3.0 astrograph + CCD.

Orbital elements:  P10Rx6s
   Perihelion 2019 Nov 9.683568 +/- 1.62 TT = 16:24:20 (JD 2458797.183568)
Epoch 2019 Sep 18.0 TT = JDT 2458744.5   Earth MOID: 0.8401   AutoNEOCP
M 347.76056312 +/- 0.59             (J2000 ecliptic)
n   0.23231981 +/- 0.00439          Peri.  268.66853 +/- 1.0
a   2.62066722 +/- 0.033            Node   137.64217 +/- 0.28
e   0.3363325 +/- 0.00592           Incl.   16.76560 +/- 0.07
P   4.24                   H 17.8   G  0.15   U  9.1  
q 1.73925162 +/- 0.0063    Q 3.50208282 +/- 0.0584
From 9 observations 2019 Sept. 10-18; mean residual 0".23
Residuals in arcseconds: 
190910 F51  .02+  .03-    190910 F51  .01-  .00     190918 691  .36+  .63-    
190910 F51  .01-  .04+    190912 H21  .13-  .01+    190918 691  .03+  .11+    
190910 F51  .01+  .01-    190912 H21  .12+  .00     190918 691  .39-  .52+    

Ephemerides (geocentric):
Date (UTC) HH   RA              Dec         delta   r     elong  mag " sig PA
---- -- -- --  -------------   -----------  ------ ------ -----  --- ---- ---
2019 09 18 19  03 28 56.777   -08 44 39.05  1.0202 1.7825 123.3 20.3 .198  54
2019 09 18 20  03 28 59.299   -08 45 13.44  1.0199 1.7824 123.4 20.3 .212  53
2019 09 18 21  03 29 01.818   -08 45 47.83  1.0197 1.7823 123.4 20.3 .226  52
2019 09 18 22  03 29 04.334   -08 46 22.25  1.0194 1.7823 123.4 20.3 .241  51
2019 09 18 23  03 29 06.846   -08 46 56.67  1.0191 1.7822 123.4 20.3 .256  50
2019 09 19 00  03 29 09.356   -08 47 31.11  1.0188 1.7821 123.4 20.3 .271  50
2019 09 19 01  03 29 11.862   -08 48 05.57  1.0185 1.7821 123.5 20.3 .286  49
2019 09 19 02  03 29 14.365   -08 48 40.04  1.0182 1.7820 123.5 20.3 .301  48
2019 09 19 03  03 29 16.864   -08 49 14.52  1.0179 1.7819 123.5 20.3 .317  48
2019 09 19 04  03 29 19.361   -08 49 49.01  1.0177 1.7819 123.5 20.3 .332  48
2019 09 19 05  03 29 21.854   -08 50 23.52  1.0174 1.7818 123.6 20.3 .348  47
2019 09 19 06  03 29 24.344   -08 50 58.05  1.0171 1.7817 123.6 20.3 .364  47
2019 09 19 07  03 29 26.831   -08 51 32.59  1.0168 1.7817 123.6 20.3 .380  46
2019 09 19 08  03 29 29.314   -08 52 07.14  1.0165 1.7816 123.6 20.3 .397  46
2019 09 19 09  03 29 31.795   -08 52 41.70  1.0162 1.7815 123.7 20.3 .413  46
2019 09 19 10  03 29 34.272   -08 53 16.28  1.0159 1.7815 123.7 20.3 .430  46
2019 09 19 11  03 29 36.746   -08 53 50.87  1.0157 1.7814 123.7 20.3 .447  45
2019 09 19 12  03 29 39.216   -08 54 25.48  1.0154 1.7813 123.7 20.3 .464  45
2019 09 19 13  03 29 41.684   -08 55 00.10  1.0151 1.7813 123.8 20.3 .481  45
2019 09 19 14  03 29 44.148   -08 55 34.73  1.0148 1.7812 123.8 20.3 .499  45
2019 09 19 15  03 29 46.609   -08 56 09.38  1.0145 1.7811 123.8 20.3 .516  45
2019 09 19 16  03 29 49.067   -08 56 44.04  1.0142 1.7811 123.8 20.3 .534  44
2019 09 19 17  03 29 51.521   -08 57 18.71  1.0140 1.7810 123.8 20.3 .552  44
2019 09 19 18  03 29 53.972   -08 57 53.40  1.0137 1.7809 123.9 20.3 .570  44
2019 09 19 19  03 29 56.420   -08 58 28.10  1.0134 1.7809 123.9 20.3 .588  44
2019 09 19 20  03 29 58.865   -08 59 02.81  1.0131 1.7808 123.9 20.3 .607  44
2019 09 19 21  03 30 01.306   -08 59 37.54  1.0128 1.7807 123.9 20.3 .625  44
2019 09 19 22  03 30 03.744   -09 00 12.28  1.0126 1.7807 124.0 20.3 .644  44
2019 09 19 23  03 30 06.179   -09 00 47.03  1.0123 1.7806 124.0 20.3 .663  43
2019 09 20 00  03 30 08.610   -09 01 21.79  1.0120 1.7805 124.0 20.3 .682  43
2019 09 20 01  03 30 11.039   -09 01 56.57  1.0117 1.7805 124.0 20.3 .701  43
2019 09 20 02  03 30 13.464   -09 02 31.37  1.0114 1.7804 124.1 20.3 .720  43
2019 09 20 03  03 30 15.885   -09 03 06.17  1.0111 1.7803 124.1 20.3 .740  43
2019 09 20 04  03 30 18.304   -09 03 40.99  1.0109 1.7803 124.1 20.3 .760  43
2019 09 20 05  03 30 20.719   -09 04 15.82  1.0106 1.7802 124.1 20.3 .780  43
2019 09 20 06  03 30 23.131   -09 04 50.66  1.0103 1.7801 124.1 20.3 .800  43
2019 09 20 07  03 30 25.540   -09 05 25.52  1.0100 1.7801 124.2 20.3 .820  43
2019 09 20 08  03 30 27.945   -09 06 00.39  1.0097 1.7800 124.2 20.3 .840  43
2019 09 20 09  03 30 30.347   -09 06 35.27  1.0095 1.7799 124.2 20.3 .861  43
2019 09 20 10  03 30 32.745   -09 07 10.17  1.0092 1.7799 124.2 20.3 .882  42
2019 09 20 11  03 30 35.141   -09 07 45.08  1.0089 1.7798 124.3 20.3 .903  42
2019 09 20 12  03 30 37.533   -09 08 20.00  1.0086 1.7797 124.3 20.3 .924  42
2019 09 20 13  03 30 39.922   -09 08 54.93  1.0083 1.7797 124.3 20.3 .945  42
2019 09 20 14  03 30 42.307   -09 09 29.88  1.0081 1.7796 124.3 20.3 .966  42
2019 09 20 15  03 30 44.689   -09 10 04.84  1.0078 1.7795 124.4 20.3 .988  42
2019 09 20 16  03 30 47.068   -09 10 39.81  1.0075 1.7795 124.4 20.3 1.01  42
2019 09 20 17  03 30 49.444   -09 11 14.79  1.0072 1.7794 124.4 20.3 1.03  42
2019 09 20 18  03 30 51.816   -09 11 49.79  1.0070 1.7793 124.4 20.3 1.05  42